sat.trackr.live / text

‹ back to catalog

STARLINK-37604

NORAD 69203 · 2026-114X

PAYLOAD ACTIVE UNKNOWN

§ Identity

Operator
Country
US
Launch date
2026-05-25
Launch site
AFETR
Launch vehicle
Mass (kg)
RCS (m²)

Purposes: comms

External: N2YO · Heavens-Above · Gunter

§ Orbital elements

Epoch: 2026-09-19T21:12:55.090080Z

Period
93.85 min
Inclination
53.1577°
Eccentricity
0.0002614
Mean motion
15.34388583 rev/d
Perigee alt
460.9 km
Apogee alt
464.5 km
Semi-major
6,840.9 km
B*
6.2881e-4
RAAN
116.4452°
Arg perigee
90.3107°
Mean anomaly
269.8195°
Rev number
1,935

§ Raw data

STARLINK-376041 69203U 26114X   26262.88397095  .00020921  00000+0  62881-3 0  99922 69203  53.1577 116.4452 0002614  90.3107 269.8195 15.34388583 19352

JSON: /api/v1/satellites/69203 · /tle

For live sub-satellite position, see the globe view (requires WebGL).

§ Visibility from observer

Set your observer location to see the next 7 days of passes ≥ 10°. The values pass through the URL so the page stays shareable.

No JS? Fill the form by hand. The geolocation button needs JavaScript.